[[{"header":{"parameterUnit":"m.s-1","parameterCategory":1,"la1":30.2991,"la2":30.254,"lo1":-89.0895,"lo2":-89.0444,"dy":0.0017,"dx":0.0017,"nx":28,"ny":28,"refTime":"2025-06-04T03:00:00:Z","depth":0,"parameterNumber":2,"parameterNumberName":"U-component_of_WINDS"},"data":[0,0,0,0,0,0,0,0,0,0,0,0,0,0,0,0,0,0,0,0,0,0,0,0,0,0,0,0,0,0,0,0,0,0,0,0,0,0,0,0,0,0,0,0,0,0,0,0,0,0,0,0,0,0,0,0,0,0,-0.3522,-0.3523,0,-0.3692,-0.3694,-0.3696,-0.3856,-0.3858,-0.386,-0.3862,-0.4033,-0.4036,-0.4039,0,0,0,0,0,0,0,0,0,0,0,0,0,-0.3334,-0.3336,-0.3521,-0.3524,-0.3526,-0.3691,-0.3694,-0.3696,-0.3855,-0.3858,-0.386,-0.3862,-0.4033,-0.4036,-0.4039,0,0,0,0,0,0,0,0,0,0,0,0,0,-0.345,-0.3337,-0.3521,-0.3625,-0.3636,-0.3691,-0.3694,-0.3697,-0.3855,-0.3858,-0.3861,-0.3864,-0.4031,-0.4035,-0.4039,-0.4004,0,0,-0.4052,-0.4054,0,0,0,0,0,0,0,0,-0.3444,-0.3457,-0.3608,-0.3618,-0.3631,-0.3756,-0.3691,-0.38,-0.3854,-0.3772,-0.3862,-0.3865,-0.3938,-0.395,-0.3976,-0.4012,-0.402,-0.4052,-0.4055,-0.4056,-0.4058,0,0,0,0,0,0,0,-0.3435,-0.3451,-0.3589,-0.361,-0.3624,-0.3663,-0.3683,-0.3712,-0.3836,-0.3779,-0.3791,-0.3809,-0.3945,-0.3971,-0.3981,-0.4022,-0.4052,-0.4056,-0.4058,-0.406,-0.4039,-0.4036,0,0,0,0,0,0,-0.3411,-0.3443,-0.3583,-0.3594,-0.3543,-0.3664,-0.3686,-0.3712,-0.3836,-0.3858,-0.3806,-0.3816,-0.3963,-0.3976,-0.3987,-0.3954,-0.4056,-0.406,-0.4063,-0.4042,-0.4038,-0.4035,0,0,0,0,0,0,-0.3407,-0.3422,-0.3577,-0.3522,-0.3544,-0.3664,-0.3692,-0.3714,-0.374,-0.3857,-0.388,-0.381,-0.3966,-0.3982,-0.3999,-0.3962,-0.4062,-0.4066,-0.4046,-0.4041,-0.4037,-0.3886,0,0,0,0,0,0,-0.3401,-0.342,-0.3408,-0.352,-0.3547,-0.3585,-0.369,-0.3715,-0.3747,-0.3761,-0.3866,-0.3887,-0.3969,-0.3992,-0.4003,-0.397,-0.4069,-0.4049,-0.4043,-0.4038,-0.3895,-0.3877,-0.3862,0,0,0,0,0,-0.3393,-0.3358,-0.3406,-0.3422,-0.3534,-0.3583,-0.3598,-0.3694,-0.3744,-0.3732,-0.3807,-0.3883,-0.3965,-0.3993,-0.4006,-0.3973,-0.4052,-0.4045,-0.4039,-0.3903,-0.3881,-0.3863,0,0,0,0,0,0,-0.3237,-0.3375,-0.343,-0.343,-0.3493,-0.361,-0.3598,-0.3668,-0.3718,-0.3729,-0.3846,-0.3869,-0.3872,-0.3926,-0.3954,-0.3946,-0.4019,-0.4015,-0.3911,-0.3891,-0.3875,-0.3861,-0.4072,0,0,0,0,0,-0.3203,-0.3231,-0.335,-0.3339,-0.3368,-0.3477,-0.3502,-0.3571,-0.3641,-0.3668,-0.3745,-0.3809,-0.385,-0.3874,-0.3918,-0.3905,-0.3929,-0.3889,-0.3872,-0.3858,-0.3852,-0.3849,-0.3832,-0.4013,-0.4013,-0.4013,0,0,-0.3132,-0.3211,-0.3221,-0.3309,-0.3367,-0.3393,-0.3499,-0.3522,-0.3542,-0.3672,-0.3693,-0.3751,-0.3831,-0.3833,-0.3838,-0.3877,-0.3808,-0.385,-0.3837,-0.384,-0.384,-0.3823,-0.3807,-0.4009,-0.4009,-0.401,0,0,-0.3016,-0.3078,-0.3076,-0.3132,-0.3218,-0.3291,-0.329,-0.3396,-0.344,-0.3463,-0.3561,-0.3587,-0.3654,-0.3707,-0.3743,-0.3648,-0.3719,-0.3659,-0.3572,-0.3567,-0.3553,-0.3541,-0.3506,-0.3492,-0.3653,-0.3653,-0.3653,0,-0.2916,-0.296,-0.3065,-0.3083,-0.3118,-0.3239,-0.3236,-0.3285,-0.338,-0.3402,-0.3445,-0.3533,-0.3595,-0.3611,-0.3587,-0.3613,-0.3615,-0.3646,-0.3546,-0.3535,-0.3526,-0.3493,-0.348,-0.3645,-0.3646,-0.3647,-0.3648,0,-0.2833,-0.2862,-0.285,-0.2939,-0.2974,-0.2981,-0.3087,-0.311,-0.3176,-0.3244,-0.3266,-0.3346,-0.3407,-0.3417,-0.3481,-0.3442,-0.3463,-0.3525,-0.36,-0.3498,-0.347,-0.3459,-0.3633,-0.3636,-0.3639,-0.3641,0,0,-0.2621,-0.277,-0.2764,-0.2806,-0.291,-0.2934,-0.2947,-0.3008,-0.3025,-0.3087,-0.31,-0.3155,-0.3213,-0.3253,-0.3325,-0.3321,-0.324,-0.3384,-0.3388,-0.3353,-0.32,-0.3151,-0.3135,-0.3289,-0.3287,-0.3286,-0.3192,0,-0.2521,-0.2552,-0.2648,-0.2649,-0.2677,-0.2792,-0.2803,-0.2868,-0.2932,-0.2965,-0.3037,-0.3073,-0.3148,-0.3173,-0.3174,-0.3249,-0.321,-0.3257,-0.3301,-0.3301,-0.3275,-0.3121,-0.3069,-0.2977,-0.3182,-0.318,-0.3179,0,-0.2409,-0.2463,-0.2467,-0.2571,-0.2586,-0.2594,-0.2658,-0.2689,-0.2764,-0.2812,-0.2857,-0.2938,-0.2957,-0.3029,-0.3057,-0.3087,-0.3111,-0.3151,-0.315,-0.3156,-0.3232,-0.3121,-0.2951,-0.2936,-0.3163,-0.3164,-0.3165,0,-0.2252,-0.2327,-0.2339,-0.2372,-0.2493,-0.2496,-0.2547,-0.2626,-0.2657,-0.2713,-0.2734,-0.2791,-0.2822,-0.2864,-0.2958,-0.3001,-0.2975,-0.3054,-0.3014,-0.3011,-0.3001,-0.3,-0.2831,-0.3019,-0.3019,-0.302,-0.302,0,-0.2129,-0.2126,-0.227,-0.2277,-0.2278,-0.2389,-0.2386,-0.2448,-0.2517,-0.2538,-0.2642,-0.2659,-0.2783,-0.2814,-0.2888,-0.2899,-0.2913,-0.2951,-0.297,-0.2941,-0.2935,-0.2956,-0.2964,-0.3016,-0.3017,-0.3018,-0.3018,0,-0.1953,-0.205,-0.207,-0.2184,-0.2212,-0.2207,-0.2305,-0.2316,-0.2387,-0.2412,-0.2425,-0.2536,-0.2579,-0.2677,-0.2746,-0.2795,-0.2787,-0.2824,-0.2761,-0.2773,-0.2726,-0.2729,-0.2563,-0.2546,-0.2746,-0.2744,-0.2742,0,-0.1868,-0.1869,-0.1982,-0.2004,-0.205,-0.2084,-0.2116,-0.2225,-0.2254,-0.2341,-0.2341,-0.2392,-0.2439,-0.2501,-0.2588,-0.2641,-0.2678,-0.2617,-0.2687,-0.2657,-0.2675,-0.2673,-0.2674,-0.26,-0.2597,-0.2595,-0.2593,0,-0.1705,-0.1753,-0.1796,-0.1854,-0.189,-0.1942,-0.1999,-0.2011,-0.2134,-0.2161,-0.2206,-0.2242,-0.2312,-0.2361,-0.2427,-0.248,-0.2556,-0.2571,-0.2564,-0.2533,-0.2496,-0.2514,-0.2717,-0.2573,-0.2575,-0.2577,-0.2578,-0.2579,-0.1572,-0.1577,-0.1658,-0.1702,-0.1757,-0.1808,-0.1824,-0.1898,-0.1937,-0.2003,-0.2066,-0.2104,-0.2181,-0.2278,-0.2325,-0.2356,-0.2395,-0.2385,-0.2383,-0.2378,-0.2365,-0.2492,-0.2369,-0.237,-0.237,-0.2371,-0.2372,0,-0.1413,-0.1471,-0.1511,-0.1588,-0.1622,-0.1693,-0.176,-0.1783,-0.1816,-0.1881,-0.1925,-0.1976,-0.2024,-0.2115,-0.2171,-0.2179,-0.2215,-0.219,-0.2189,-0.22,-0.2327,-0.2327,-0.2159,-0.2159,-0.2159,-0.2159,-0.2159,-0.2159,-0.1335,-0.1348,-0.1405,-0.1447,-0.1506,-0.1544,-0.1576,-0.1624,-0.1677,-0.1729,-0.177,-0.183,-0.1905,-0.1968,-0.2015,-0.2041,-0.2055,-0.2018,-0.2054,-0.2171,-0.2191,-0.221,-0.221,-0.2021,-0.202,-0.1924,-0.1923,-0.1923]},{"header":{"parameterUnit":"m.s-1","parameterCategory":1,"la1":30.2991,"la2":30.254,"lo1":-89.0895,"lo2":-89.0444,"dy":0.0017,"dx":0.0017,"nx":28,"ny":28,"refTime":"2025-06-04T03:00:00:Z","depth":0,"parameterNumber":3,"parameterNumberName":"V-component_of_WINDS"},"data":[0,0,0,0,0,0,0,0,0,0,0,0,0,0,0,0,0,0,0,0,0,0,0,0,0,0,0,0,0,0,0,0,0,0,0,0,0,0,0,0,0,0,0,0,0,0,0,0,0,0,0,0,0,0,0,0,0,0,2.0532,2.0534,0,2.0693,2.0695,2.0697,2.0699,2.0697,2.0695,2.0693,2.0857,2.0863,2.087,0,0,0,0,0,0,0,0,0,0,0,0,0,2.0226,2.0232,2.0532,2.0534,2.0536,2.0693,2.0695,2.0697,2.0699,2.0697,2.0694,2.0692,2.0855,2.0863,2.087,0,0,0,0,0,0,0,0,0,0,0,0,0,2.037,2.0234,2.0532,2.0556,2.056,2.0692,2.0695,2.0698,2.07,2.0696,2.0693,2.0691,2.0853,2.0862,2.0871,2.099,0,0,2.09,2.0904,0,0,0,0,0,0,0,0,2.0362,2.0382,2.055,2.0554,2.0559,2.0673,2.0647,2.0796,2.07,2.0646,2.0693,2.0689,2.0798,2.0812,2.0849,2.0998,2.1005,2.0901,2.0907,2.0911,2.0913,0,0,0,0,0,0,0,2.0352,2.0375,2.0596,2.0553,2.0558,2.0559,2.0576,2.0676,2.0737,2.0651,2.0651,2.067,2.08,2.084,2.0853,2.1008,2.0901,2.0909,2.0915,2.0918,2.1262,2.1266,0,0,0,0,0,0,2.0337,2.0366,2.0591,2.06,2.0451,2.0567,2.0586,2.0639,2.0736,2.0748,2.0673,2.067,2.0825,2.0842,2.0859,2.1004,2.0911,2.0919,2.0925,2.1259,2.1263,2.1267,0,0,0,0,0,0,2.0331,2.0357,2.0584,2.0484,2.0513,2.0575,2.0635,2.0644,2.0684,2.0753,2.0764,2.0702,2.0823,2.0845,2.0958,2.101,2.0924,2.0932,2.1255,2.126,2.1265,2.1296,0,0,0,0,0,0,2.0322,2.0355,2.0401,2.0485,2.0518,2.068,2.0638,2.0649,2.07,2.0698,2.0783,2.0795,2.0823,2.0943,2.0967,2.1021,2.094,2.125,2.1257,2.1263,2.1291,2.1302,2.1311,0,0,0,0,0,2.0311,2.0403,2.0403,2.043,2.0577,2.0683,2.0702,2.0733,2.0704,2.0751,2.0795,2.0792,2.1,2.0955,2.0981,2.1039,2.1247,2.1255,2.1263,2.1286,2.13,2.1311,0,0,0,0,0,0,2.0324,2.0415,2.0416,2.0538,2.0603,2.0684,2.0743,2.0746,2.0821,2.0816,2.085,2.087,2.0981,2.1022,2.0969,2.116,2.112,2.1134,2.1129,2.1142,2.1152,2.114,2.0947,0,0,0,0,0,2.0341,2.0421,2.0495,2.0596,2.0629,2.068,2.0728,2.0746,2.0815,2.0842,2.0895,2.0962,2.1042,2.1095,2.1173,2.1297,2.1315,2.135,2.136,2.1368,2.1379,2.1447,2.1463,2.1292,2.1292,2.1292,0,0,2.0378,2.0437,2.0485,2.06,2.0653,2.0734,2.0704,2.0791,2.0851,2.0856,2.0964,2.1006,2.1083,2.1201,2.1256,2.1238,2.143,2.1378,2.1384,2.1391,2.1457,2.1473,2.1487,2.1298,2.1297,2.1296,0,0,2.0485,2.0538,2.0627,2.0681,2.076,2.0794,2.0816,2.0896,2.0923,2.1033,2.1038,2.1111,2.1249,2.1303,2.1349,2.1477,2.1476,2.1501,2.1555,2.1621,2.1634,2.1646,2.1691,2.1707,2.1512,2.1512,2.1512,0,2.052,2.0642,2.0673,2.076,2.0811,2.0818,2.0909,2.0959,2.106,2.1095,2.1074,2.1247,2.1299,2.143,2.1462,2.1499,2.1524,2.1491,2.163,2.1642,2.1654,2.1697,2.1714,2.1515,2.1514,2.1514,2.1514,0,2.0681,2.0766,2.0828,2.0926,2.0983,2.1072,2.1116,2.117,2.1183,2.1219,2.1331,2.1394,2.1485,2.1517,2.1531,2.1651,2.1637,2.1622,2.1584,2.1672,2.1714,2.173,2.1518,2.1517,2.1517,2.1516,0,0,2.0801,2.0914,2.0937,2.098,2.1069,2.1135,2.1224,2.1313,2.1358,2.1428,2.1503,2.162,2.1607,2.1659,2.1679,2.1737,2.1833,2.1715,2.1718,2.1734,2.1969,2.1978,2.1997,2.1834,2.1837,2.184,2.1962,0,2.0918,2.1075,2.1105,2.1243,2.1321,2.1329,2.1407,2.1469,2.1505,2.1577,2.1617,2.1699,2.1676,2.1707,2.1765,2.1809,2.1881,2.1801,2.1904,2.1907,2.1884,2.2019,2.203,2.2142,2.1978,2.1981,2.1983,0,2.1075,2.1148,2.1292,2.137,2.1404,2.1473,2.1556,2.1625,2.1696,2.1718,2.1776,2.1789,2.1882,2.1839,2.1967,2.1912,2.1956,2.1984,2.1989,2.1999,2.195,2.2032,2.2179,2.2195,2.2009,2.2007,2.2005,0,2.1147,2.1282,2.1386,2.1423,2.1516,2.1565,2.1606,2.1674,2.1725,2.1798,2.1832,2.1914,2.196,2.2024,2.2059,2.2024,2.2184,2.2144,2.2204,2.2204,2.2237,2.2235,2.2392,2.2266,2.2266,2.2266,2.2265,0,2.1273,2.1362,2.1419,2.1483,2.1582,2.1616,2.1713,2.1753,2.1814,2.1886,2.1898,2.1965,2.2008,2.2081,2.2109,2.2211,2.2231,2.2251,2.2258,2.225,2.2248,2.2279,2.2272,2.227,2.2269,2.2268,2.2268,0,2.1371,2.1413,2.1527,2.1606,2.1628,2.1697,2.1764,2.1827,2.1863,2.1953,2.1977,2.2033,2.212,2.2162,2.2269,2.2288,2.2403,2.2404,2.2379,2.2381,2.2439,2.2433,2.2622,2.2649,2.2506,2.2507,2.2508,0,2.1449,2.1517,2.1603,2.1651,2.1694,2.1772,2.1825,2.186,2.1914,2.2,2.2052,2.2139,2.2211,2.235,2.24,2.2483,2.2486,2.2547,2.2499,2.2489,2.2487,2.2482,2.2489,2.2555,2.2557,2.2558,2.2559,0,2.1582,2.1599,2.1674,2.1756,2.1818,2.1885,2.195,2.1989,2.2035,2.2095,2.2184,2.224,2.235,2.2436,2.2522,2.2565,2.257,2.2573,2.2592,2.2584,2.2567,2.2577,2.2402,2.2569,2.2568,2.2567,2.2567,2.2566,2.1672,2.1733,2.1802,2.1885,2.1938,2.1998,2.2061,2.2104,2.2179,2.2271,2.2287,2.2382,2.2451,2.2567,2.2612,2.2687,2.2673,2.2699,2.2706,2.2712,2.2715,2.2555,2.2702,2.2702,2.2702,2.2702,2.2702,0,2.1806,2.1851,2.1926,2.2017,2.2082,2.2081,2.2153,2.2207,2.229,2.2354,2.2424,2.2526,2.261,2.2668,2.2753,2.2801,2.2806,2.2822,2.2819,2.2828,2.2723,2.2698,2.2817,2.2817,2.2817,2.2817,2.2817,2.2817,2.1883,2.1985,2.201,2.2139,2.2184,2.2276,2.2317,2.2373,2.2424,2.2537,2.2607,2.2644,2.2705,2.2795,2.2872,2.2886,2.2917,2.2934,2.2948,2.2848,2.2836,2.2824,2.2801,2.294,2.2941,2.3048,2.3049,2.305]}]]